This is the latest recevied weather packets stored in our database for station/object WD9EKA. If no packets are shown the sender has not sent any weather packets the latest 10 day(s).
| Time | Temp. | Humidity | Pressure | Rain* | Wind** | Luminosity | Snow |
|---|---|---|---|---|---|---|---|
| 1778027194 | 8.89° C | 99% | 1003.4 hPa | 0.51 mm | - | - | - |
| 1778026834 | 8.89° C | 99% | 1003.4 hPa | 0.51 mm | - | - | - |
| 1778026474 | 8.89° C | 99% | 1003.5 hPa | 0.51 mm | - | - | - |
| 1778026114 | 8.89° C | 99% | 1003.9 hPa | 0.51 mm | - | - | - |
| 1778025754 | 8.89° C | 99% | 1004.1 hPa | 0.51 mm | - | - | - |
| 1778025393 | 8.89° C | 99% | 1003.8 hPa | 0.76 mm | - | - | - |
| 1778025034 | 8.89° C | 99% | 1003.9 hPa | 0.76 mm | - | - | - |
| 1778024674 | 8.89° C | 99% | 1004.4 hPa | 0.76 mm | - | - | - |
| 1778023954 | 8.89° C | 99% | 1004.1 hPa | 1.27 mm | - | - | - |
| 1778023234 | 8.89° C | 99% | 1004.1 hPa | 1.27 mm | - | - | - |
| 1778022874 | 8.89° C | 99% | 1004.1 hPa | 1.27 mm | - | - | - |
| 1778022513 | 8.89° C | 99% | 1003.9 hPa | 1.52 mm | - | - | - |
| 1778022153 | 8.89° C | 99% | 1004 hPa | 1.27 mm | - | - | - |
| 1778021794 | 8.89° C | 99% | 1004 hPa | 1.52 mm | - | - | - |
| 1778021434 | 8.89° C | 99% | 1004.3 hPa | 1.78 mm | - | - | - |
| 1778021074 | 8.89° C | 99% | 1004 hPa | 2.03 mm | - | - | - |
| 1778020714 | 8.89° C | 99% | 1004 hPa | 2.03 mm | - | - | - |
| 1778020354 | 8.89° C | 99% | 1004 hPa | 2.03 mm | - | - | - |
| 1778019994 | 8.89° C | 99% | 1004.2 hPa | 2.29 mm | - | - | - |
| 1778019634 | 8.89° C | 99% | 1004.2 hPa | 2.03 mm | - | - | - |
| 1778019274 | 8.89° C | 99% | 1004.2 hPa | 2.29 mm | - | - | - |
| 1778018914 | 8.89° C | 99% | 1004.4 hPa | 2.29 mm | - | - | - |
| 1778018554 | 8.89° C | 99% | 1004.6 hPa | 2.29 mm | - | - | - |
| 1778018194 | 8.89° C | 99% | 1004.5 hPa | 2.29 mm | - | - | - |
| 1778017834 | 8.89° C | 99% | 1004.4 hPa | 2.29 mm | - | - | - |
* Rain latest hour (hover to see other rain measurements)
** Current wind speed in m/s (hover to see current wind gust speed)